﻿測定場所 (Monitoring sites),日付 (Measurement date),時間 (Measurement time),線量率 最大値 (max) μGy/h,線量率 最小値 (min) μGy/h,線量率 平均値 (average) μGy/h,
新宿 (Shinjuku),2017-09-24,23:01～24:00,0.0428,0.0360,0.0385,
新宿 (Shinjuku),2017-09-24,22:01～23:00,0.0428,0.0359,0.0385,
新宿 (Shinjuku),2017-09-24,21:01～22:00,0.0414,0.0360,0.0390,
新宿 (Shinjuku),2017-09-24,20:01～21:00,0.0420,0.0359,0.0384,
新宿 (Shinjuku),2017-09-24,19:01～20:00,0.0431,0.0361,0.0386,
新宿 (Shinjuku),2017-09-24,18:01～19:00,0.0431,0.0355,0.0385,
新宿 (Shinjuku),2017-09-24,17:01～18:00,0.0425,0.0359,0.0384,
新宿 (Shinjuku),2017-09-24,16:01～17:00,0.0417,0.0359,0.0389,
新宿 (Shinjuku),2017-09-24,15:01～16:00,0.0408,0.0358,0.0384,
新宿 (Shinjuku),2017-09-24,14:01～15:00,0.0425,0.0361,0.0391,
新宿 (Shinjuku),2017-09-24,13:01～14:00,0.0411,0.0361,0.0383,
新宿 (Shinjuku),2017-09-24,12:01～13:00,0.0409,0.0356,0.0382,
新宿 (Shinjuku),2017-09-24,11:01～12:00,0.0435,0.0361,0.0385,
新宿 (Shinjuku),2017-09-24,10:01～11:00,0.0425,0.0364,0.0386,
新宿 (Shinjuku),2017-09-24,09:01～10:00,0.0423,0.0358,0.0385,
新宿 (Shinjuku),2017-09-24,08:01～09:00,0.0420,0.0365,0.0389,
新宿 (Shinjuku),2017-09-24,07:01～08:00,0.0434,0.0363,0.0389,
新宿 (Shinjuku),2017-09-24,06:01～07:00,0.0422,0.0361,0.0387,
新宿 (Shinjuku),2017-09-24,05:01～06:00,0.0420,0.0357,0.0383,
新宿 (Shinjuku),2017-09-24,04:01～05:00,0.0426,0.0360,0.0385,
新宿 (Shinjuku),2017-09-24,03:01～04:00,0.0417,0.0353,0.0381,
新宿 (Shinjuku),2017-09-24,02:01～03:00,0.0422,0.0359,0.0380,
新宿 (Shinjuku),2017-09-24,01:01～02:00,0.0420,0.0360,0.0383,
新宿 (Shinjuku),2017-09-24,00:01～01:00,0.0416,0.0351,0.0381,
新宿 (Shinjuku),2017-09-23,23:01～24:00,0.0416,0.0360,0.0387,
新宿 (Shinjuku),2017-09-23,22:01～23:00,0.0422,0.0360,0.0383,
新宿 (Shinjuku),2017-09-23,21:01～22:00,0.0424,0.0358,0.0382,
新宿 (Shinjuku),2017-09-23,20:01～21:00,0.0423,0.0354,0.0383,
新宿 (Shinjuku),2017-09-23,19:01～20:00,0.0424,0.0356,0.0382,
新宿 (Shinjuku),2017-09-23,18:01～19:00,0.0423,0.0357,0.0385,
新宿 (Shinjuku),2017-09-23,17:01～18:00,0.0414,0.0358,0.0385,
新宿 (Shinjuku),2017-09-23,16:01～17:00,0.0430,0.0361,0.0388,
新宿 (Shinjuku),2017-09-23,15:01～16:00,0.0412,0.0360,0.0381,
新宿 (Shinjuku),2017-09-23,14:01～15:00,0.0436,0.0352,0.0386,
新宿 (Shinjuku),2017-09-23,13:01～14:00,0.0419,0.0356,0.0385,
新宿 (Shinjuku),2017-09-23,12:01～13:00,0.0413,0.0357,0.0381,
新宿 (Shinjuku),2017-09-23,11:01～12:00,0.0417,0.0351,0.0383,
新宿 (Shinjuku),2017-09-23,10:01～11:00,0.0429,0.0361,0.0385,
新宿 (Shinjuku),2017-09-23,09:01～10:00,0.0422,0.0363,0.0389,
新宿 (Shinjuku),2017-09-23,08:01～09:00,0.0469,0.0376,0.0413,
新宿 (Shinjuku),2017-09-23,07:01～08:00,0.0471,0.0401,0.0435,
新宿 (Shinjuku),2017-09-23,06:01～07:00,0.0469,0.0393,0.0428,
新宿 (Shinjuku),2017-09-23,05:01～06:00,0.0524,0.0409,0.0474,
新宿 (Shinjuku),2017-09-23,04:01～05:00,0.0594,0.0482,0.0529,
新宿 (Shinjuku),2017-09-23,03:01～04:00,0.0623,0.0516,0.0567,
新宿 (Shinjuku),2017-09-23,02:01～03:00,0.0620,0.0546,0.0587,
新宿 (Shinjuku),2017-09-23,01:01～02:00,0.0594,0.0409,0.0496,
新宿 (Shinjuku),2017-09-23,00:01～01:00,0.0513,0.0394,0.0462,
新宿 (Shinjuku),2017-09-22,23:01～24:00,0.0539,0.0440,0.0483,
新宿 (Shinjuku),2017-09-22,22:01～23:00,0.0642,0.0504,0.0566,
新宿 (Shinjuku),2017-09-22,21:01～22:00,0.0592,0.0500,0.0552,
新宿 (Shinjuku),2017-09-22,20:01～21:00,0.0676,0.0553,0.0621,
新宿 (Shinjuku),2017-09-22,19:01～20:00,0.0708,0.0593,0.0653,
新宿 (Shinjuku),2017-09-22,18:01～19:00,0.0640,0.0394,0.0490,
新宿 (Shinjuku),2017-09-22,17:01～18:00,0.0480,0.0384,0.0432,
新宿 (Shinjuku),2017-09-22,16:01～17:00,0.0556,0.0452,0.0504,
新宿 (Shinjuku),2017-09-22,15:01～16:00,0.0587,0.0395,0.0507,
新宿 (Shinjuku),2017-09-22,14:01～15:00,0.0468,0.0389,0.0425,
新宿 (Shinjuku),2017-09-22,13:01～14:00,0.0427,0.0367,0.0398,
新宿 (Shinjuku),2017-09-22,12:01～13:00,0.0438,0.0372,0.0403,
新宿 (Shinjuku),2017-09-22,11:01～12:00,0.0441,0.0368,0.0403,
新宿 (Shinjuku),2017-09-22,10:01～11:00,0.0434,0.0366,0.0394,
新宿 (Shinjuku),2017-09-22,09:01～10:00,0.0444,0.0361,0.0396,
新宿 (Shinjuku),2017-09-22,08:01～09:00,0.0434,0.0361,0.0400,
新宿 (Shinjuku),2017-09-22,07:01～08:00,0.0432,0.0369,0.0399,
新宿 (Shinjuku),2017-09-22,06:01～07:00,0.0437,0.0371,0.0402,
新宿 (Shinjuku),2017-09-22,05:01～06:00,0.0432,0.0367,0.0400,
新宿 (Shinjuku),2017-09-22,04:01～05:00,0.0439,0.0374,0.0404,
新宿 (Shinjuku),2017-09-22,03:01～04:00,0.0427,0.0362,0.0396,
新宿 (Shinjuku),2017-09-22,02:01～03:00,0.0437,0.0361,0.0396,
新宿 (Shinjuku),2017-09-22,01:01～02:00,0.0441,0.0363,0.0393,
新宿 (Shinjuku),2017-09-22,00:01～01:00,0.0431,0.0366,0.0398,
新宿 (Shinjuku),2017-09-21,23:01～24:00,0.0451,0.0356,0.0391,
新宿 (Shinjuku),2017-09-21,22:01～23:00,0.0429,0.0361,0.0390,
新宿 (Shinjuku),2017-09-21,21:01～22:00,0.0438,0.0359,0.0392,
新宿 (Shinjuku),2017-09-21,20:01～21:00,0.0430,0.0366,0.0393,
新宿 (Shinjuku),2017-09-21,19:01～20:00,0.0421,0.0366,0.0391,
新宿 (Shinjuku),2017-09-21,18:01～19:00,0.0421,0.0366,0.0391,
新宿 (Shinjuku),2017-09-21,17:01～18:00,0.0423,0.0364,0.0391,
新宿 (Shinjuku),2017-09-21,16:01～17:00,0.0417,0.0358,0.0387,
新宿 (Shinjuku),2017-09-21,15:01～16:00,0.0416,0.0360,0.0386,
新宿 (Shinjuku),2017-09-21,14:01～15:00,0.0418,0.0361,0.0387,
新宿 (Shinjuku),2017-09-21,13:01～14:00,0.0419,0.0363,0.0389,
新宿 (Shinjuku),2017-09-21,12:01～13:00,0.0424,0.0355,0.0384,
新宿 (Shinjuku),2017-09-21,11:01～12:00,0.0421,0.0356,0.0387,
新宿 (Shinjuku),2017-09-21,10:01～11:00,0.0422,0.0356,0.0388,
新宿 (Shinjuku),2017-09-21,09:01～10:00,0.0432,0.0363,0.0390,
新宿 (Shinjuku),2017-09-21,08:01～09:00,0.0431,0.0360,0.0394,
新宿 (Shinjuku),2017-09-21,07:01～08:00,0.0439,0.0362,0.0399,
新宿 (Shinjuku),2017-09-21,06:01～07:00,0.0436,0.0363,0.0399,
新宿 (Shinjuku),2017-09-21,05:01～06:00,0.0431,0.0365,0.0398,
新宿 (Shinjuku),2017-09-21,04:01～05:00,0.0432,0.0350,0.0392,
新宿 (Shinjuku),2017-09-21,03:01～04:00,0.0444,0.0363,0.0396,
新宿 (Shinjuku),2017-09-21,02:01～03:00,0.0433,0.0363,0.0397,
新宿 (Shinjuku),2017-09-21,01:01～02:00,0.0450,0.0363,0.0400,
新宿 (Shinjuku),2017-09-21,00:01～01:00,0.0438,0.0366,0.0400,
新宿 (Shinjuku),2017-09-20,23:01～24:00,0.0435,0.0364,0.0397,
新宿 (Shinjuku),2017-09-20,22:01～23:00,0.0437,0.0365,0.0395,
新宿 (Shinjuku),2017-09-20,21:01～22:00,0.0434,0.0364,0.0391,
新宿 (Shinjuku),2017-09-20,20:01～21:00,0.0438,0.0365,0.0392,
新宿 (Shinjuku),2017-09-20,19:01～20:00,0.0440,0.0352,0.0392,
新宿 (Shinjuku),2017-09-20,18:01～19:00,0.0431,0.0361,0.0391,
新宿 (Shinjuku),2017-09-20,17:01～18:00,0.0436,0.0364,0.0392,
新宿 (Shinjuku),2017-09-20,16:01～17:00,0.0429,0.0359,0.0391,
新宿 (Shinjuku),2017-09-20,15:01～16:00,0.0432,0.0361,0.0385,
新宿 (Shinjuku),2017-09-20,14:01～15:00,0.0433,0.0357,0.0388,
新宿 (Shinjuku),2017-09-20,13:01～14:00,0.0434,0.0361,0.0390,
新宿 (Shinjuku),2017-09-20,12:01～13:00,0.0422,0.0359,0.0389,
新宿 (Shinjuku),2017-09-20,11:01～12:00,0.0421,0.0356,0.0388,
新宿 (Shinjuku),2017-09-20,10:01～11:00,0.0428,0.0364,0.0389,
新宿 (Shinjuku),2017-09-20,09:01～10:00,0.0419,0.0357,0.0389,
新宿 (Shinjuku),2017-09-20,08:01～09:00,0.0431,0.0367,0.0393,
新宿 (Shinjuku),2017-09-20,07:01～08:00,0.0416,0.0365,0.0386,
新宿 (Shinjuku),2017-09-20,06:01～07:00,0.0421,0.0365,0.0391,
新宿 (Shinjuku),2017-09-20,05:01～06:00,0.0421,0.0365,0.0390,
新宿 (Shinjuku),2017-09-20,04:01～05:00,0.0429,0.0360,0.0391,
新宿 (Shinjuku),2017-09-20,03:01～04:00,0.0447,0.0354,0.0389,
新宿 (Shinjuku),2017-09-20,02:01～03:00,0.0429,0.0359,0.0389,
新宿 (Shinjuku),2017-09-20,01:01～02:00,0.0429,0.0361,0.0389,
新宿 (Shinjuku),2017-09-20,00:01～01:00,0.0418,0.0364,0.0385,
新宿 (Shinjuku),2017-09-19,23:01～24:00,0.0413,0.0355,0.0385,
新宿 (Shinjuku),2017-09-19,22:01～23:00,0.0425,0.0361,0.0386,
新宿 (Shinjuku),2017-09-19,21:01～22:00,0.0426,0.0351,0.0389,
新宿 (Shinjuku),2017-09-19,20:01～21:00,0.0421,0.0352,0.0387,
新宿 (Shinjuku),2017-09-19,19:01～20:00,0.0418,0.0360,0.0383,
新宿 (Shinjuku),2017-09-19,18:01～19:00,0.0425,0.0349,0.0383,
新宿 (Shinjuku),2017-09-19,17:01～18:00,0.0422,0.0357,0.0385,
新宿 (Shinjuku),2017-09-19,16:01～17:00,0.0414,0.0357,0.0386,
新宿 (Shinjuku),2017-09-19,15:01～16:00,0.0431,0.0350,0.0386,
新宿 (Shinjuku),2017-09-19,14:01～15:00,0.0415,0.0357,0.0379,
新宿 (Shinjuku),2017-09-19,13:01～14:00,0.0414,0.0359,0.0381,
新宿 (Shinjuku),2017-09-19,12:01～13:00,0.0425,0.0358,0.0381,
新宿 (Shinjuku),2017-09-19,11:01～12:00,0.0426,0.0359,0.0382,
新宿 (Shinjuku),2017-09-19,10:01～11:00,0.0413,0.0364,0.0385,
新宿 (Shinjuku),2017-09-19,09:01～10:00,0.0434,0.0362,0.0383,
新宿 (Shinjuku),2017-09-19,08:01～09:00,0.0420,0.0359,0.0379,
新宿 (Shinjuku),2017-09-19,07:01～08:00,0.0420,0.0353,0.0385,
新宿 (Shinjuku),2017-09-19,06:01～07:00,0.0418,0.0362,0.0389,
新宿 (Shinjuku),2017-09-19,05:01～06:00,0.0422,0.0349,0.0383,
新宿 (Shinjuku),2017-09-19,04:01～05:00,0.0417,0.0362,0.0386,
新宿 (Shinjuku),2017-09-19,03:01～04:00,0.0425,0.0353,0.0387,
新宿 (Shinjuku),2017-09-19,02:01～03:00,0.0428,0.0360,0.0385,
新宿 (Shinjuku),2017-09-19,01:01～02:00,0.0419,0.0357,0.0385,
新宿 (Shinjuku),2017-09-19,00:01～01:00,0.0419,0.0354,0.0381,
新宿 (Shinjuku),2017-09-18,23:01～24:00,0.0428,0.0359,0.0385,
新宿 (Shinjuku),2017-09-18,22:01～23:00,0.0419,0.0359,0.0384,
新宿 (Shinjuku),2017-09-18,21:01～22:00,0.0409,0.0357,0.0382,
新宿 (Shinjuku),2017-09-18,20:01～21:00,0.0428,0.0358,0.0381,
新宿 (Shinjuku),2017-09-18,19:01～20:00,0.0429,0.0353,0.0384,
新宿 (Shinjuku),2017-09-18,18:01～19:00,0.0416,0.0359,0.0383,
新宿 (Shinjuku),2017-09-18,17:01～18:00,0.0419,0.0359,0.0382,
新宿 (Shinjuku),2017-09-18,16:01～17:00,0.0413,0.0343,0.0383,
新宿 (Shinjuku),2017-09-18,15:01～16:00,0.0419,0.0360,0.0383,
新宿 (Shinjuku),2017-09-18,14:01～15:00,0.0420,0.0355,0.0388,
新宿 (Shinjuku),2017-09-18,13:01～14:00,0.0421,0.0358,0.0387,
新宿 (Shinjuku),2017-09-18,12:01～13:00,0.0422,0.0361,0.0386,
新宿 (Shinjuku),2017-09-18,11:01～12:00,0.0422,0.0353,0.0382,
新宿 (Shinjuku),2017-09-18,10:01～11:00,0.0426,0.0361,0.0385,
新宿 (Shinjuku),2017-09-18,09:01～10:00,0.0416,0.0358,0.0385,
新宿 (Shinjuku),2017-09-18,08:01～09:00,0.0418,0.0361,0.0384,
新宿 (Shinjuku),2017-09-18,07:01～08:00,0.0420,0.0359,0.0383,
新宿 (Shinjuku),2017-09-18,06:01～07:00,0.0423,0.0364,0.0389,
新宿 (Shinjuku),2017-09-18,05:01～06:00,0.0424,0.0362,0.0389,
新宿 (Shinjuku),2017-09-18,04:01～05:00,0.0424,0.0368,0.0394,
新宿 (Shinjuku),2017-09-18,03:01～04:00,0.0447,0.0366,0.0401,
新宿 (Shinjuku),2017-09-18,02:01～03:00,0.0471,0.0386,0.0426,
新宿 (Shinjuku),2017-09-18,01:01～02:00,0.0457,0.0373,0.0419,
新宿 (Shinjuku),2017-09-18,00:01～01:00,0.0432,0.0361,0.0392,
